[[{"header":{"parameterUnit":"m.s-1","parameterCategory":1,"la1":30.2991,"la2":30.254,"lo1":-89.0895,"lo2":-89.0444,"dx":0.0017,"dy":0.0017,"nx":28,"ny":28,"refTime":"2022-11-05T15:00:00:Z","depth":0,"parameterNumber":2,"parameterNumberName":"U-component_of_WINDS"},"data":[0,0,0,0,0,0,0,0,0,0,0,0,0,0,0,0,0,0,0,0,0,0,0,0,0,0,0,0,0,0,0,0,0,0,0,0,0,0,0,0,0,0,0,0,0,0,0,0,0,0,0,0,0,0,0,0,0,0,0.2948,0.2948,0,0.2966,0.2966,0.2966,0.2953,0.2953,0.2952,0.2952,0.2971,0.2972,0.2973,0,0,0,0,0,0,0,0,0,0,0,0,0,0.2904,0.2905,0.2948,0.2948,0.2948,0.2966,0.2966,0.2966,0.2953,0.2953,0.2952,0.2951,0.297,0.2972,0.2973,0,0,0,0,0,0,0,0,0,0,0,0,0,0.2923,0.2905,0.2948,0.2944,0.2944,0.2966,0.2966,0.2966,0.2954,0.2953,0.2952,0.2951,0.297,0.2972,0.2973,0.3,0,0,0.2978,0.2979,0,0,0,0,0,0,0,0,0.2922,0.2924,0.2945,0.2945,0.2944,0.2956,0.2957,0.2977,0.2954,0.295,0.2952,0.2951,0.2967,0.2969,0.2974,0.3001,0.3001,0.2978,0.2979,0.298,0.298,0,0,0,0,0,0,0,0.292,0.2924,0.2955,0.2945,0.2945,0.2942,0.2944,0.2961,0.2963,0.295,0.2949,0.2952,0.2967,0.2972,0.2974,0.3002,0.2978,0.2979,0.298,0.2981,0.305,0.3051,0,0,0,0,0,0,0.2919,0.2923,0.2954,0.2956,0.2931,0.2943,0.2945,0.2953,0.2963,0.2963,0.2952,0.2951,0.297,0.2972,0.2975,0.3006,0.298,0.2981,0.2982,0.305,0.3051,0.3052,0,0,0,0,0,0,0.2918,0.2922,0.2954,0.2939,0.2943,0.2945,0.2954,0.2954,0.296,0.2964,0.2965,0.2958,0.2969,0.2973,0.2993,0.3007,0.2982,0.2983,0.3048,0.305,0.3051,0.3069,0,0,0,0,0,0,0.2917,0.2922,0.2932,0.2939,0.2943,0.2972,0.2955,0.2955,0.2962,0.2961,0.2969,0.297,0.2969,0.2991,0.2995,0.3008,0.2984,0.3047,0.3049,0.3051,0.3067,0.3071,0.3074,0,0,0,0,0,0.2916,0.2937,0.2933,0.2937,0.2956,0.2973,0.2975,0.2973,0.2964,0.2974,0.2976,0.297,0.3004,0.2993,0.2997,0.3012,0.3046,0.3049,0.3051,0.3066,0.307,0.3074,0,0,0,0,0,0,0.2932,0.2938,0.2933,0.2957,0.2964,0.2971,0.2983,0.2978,0.2989,0.2987,0.2984,0.2986,0.3008,0.3012,0.2999,0.3037,0.3024,0.3027,0.3034,0.3038,0.3042,0.304,0.2986,0,0,0,0,0,0.2938,0.2951,0.2956,0.2976,0.298,0.2981,0.2988,0.2986,0.2994,0.2997,0.3001,0.3009,0.3022,0.303,0.3042,0.3068,0.3069,0.3079,0.3083,0.3085,0.3088,0.3102,0.3106,0.3058,0.3058,0.3058,0,0,0.2951,0.2956,0.2965,0.298,0.2985,0.2999,0.2984,0.2999,0.3009,0.2999,0.3019,0.3022,0.3031,0.3054,0.3065,0.3058,0.3101,0.3088,0.309,0.3091,0.3104,0.3109,0.3113,0.306,0.306,0.3059,0,0,0.2982,0.2987,0.3005,0.301,0.3019,0.3019,0.3023,0.303,0.3032,0.3051,0.3044,0.3056,0.3078,0.3084,0.3091,0.3123,0.3117,0.3127,0.3145,0.3158,0.3161,0.3165,0.3176,0.318,0.313,0.313,0.313,0,0.2998,0.3018,0.3015,0.303,0.3037,0.3028,0.3046,0.3052,0.3063,0.3068,0.3061,0.3087,0.3093,0.3117,0.3125,0.313,0.3135,0.3126,0.3161,0.3164,0.3167,0.3178,0.3183,0.3131,0.3131,0.3131,0.3131,0,0.3036,0.305,0.3064,0.3075,0.3083,0.3099,0.3099,0.3108,0.3104,0.3106,0.3126,0.3131,0.3144,0.315,0.3147,0.3174,0.3169,0.3161,0.3148,0.3173,0.3183,0.3188,0.3133,0.3132,0.3132,0.3132,0,0,0.3079,0.3087,0.3092,0.3097,0.3105,0.3116,0.3132,0.3144,0.3151,0.3159,0.3173,0.3191,0.3184,0.3191,0.3188,0.32,0.3225,0.3191,0.3191,0.3197,0.3254,0.326,0.3265,0.3221,0.3222,0.3223,0.3254,0,0.311,0.3138,0.3135,0.3161,0.3174,0.3165,0.3179,0.3186,0.3187,0.3198,0.32,0.3213,0.3202,0.3206,0.3217,0.322,0.3237,0.3217,0.3234,0.3234,0.3232,0.327,0.3277,0.3306,0.3258,0.3258,0.3259,0,0.315,0.316,0.3187,0.3192,0.3198,0.321,0.3221,0.3231,0.3238,0.3239,0.3246,0.3242,0.3258,0.3244,0.3266,0.3253,0.3259,0.3261,0.3262,0.3264,0.3248,0.3273,0.3315,0.3319,0.3265,0.3264,0.3264,0,0.3178,0.3197,0.3216,0.322,0.3228,0.3236,0.324,0.3246,0.3253,0.3262,0.3267,0.3278,0.3284,0.3293,0.3292,0.3282,0.3314,0.33,0.3315,0.3315,0.3322,0.3322,0.3366,0.3326,0.3326,0.3326,0.3326,0,0.3214,0.3231,0.3229,0.324,0.3259,0.3256,0.3274,0.3277,0.3282,0.3294,0.3288,0.3299,0.3297,0.3308,0.3307,0.3325,0.3328,0.3329,0.3329,0.333,0.3329,0.3334,0.3332,0.3327,0.3327,0.3327,0.3327,0,0.3248,0.3247,0.3267,0.3272,0.3274,0.3287,0.3291,0.3302,0.3303,0.3318,0.3321,0.3322,0.3335,0.3335,0.335,0.3349,0.3371,0.3369,0.3369,0.3368,0.3383,0.3382,0.3431,0.3438,0.3394,0.3395,0.3395,0,0.3271,0.3283,0.3289,0.3297,0.33,0.3312,0.3319,0.3317,0.3324,0.3333,0.3343,0.3355,0.3364,0.3385,0.3388,0.3399,0.3396,0.3413,0.3398,0.3398,0.3396,0.3395,0.3397,0.3416,0.3416,0.3417,0.3417,0,0.3311,0.331,0.332,0.333,0.3338,0.3346,0.3353,0.336,0.3358,0.3367,0.3379,0.3387,0.3401,0.3413,0.3424,0.3428,0.3422,0.3422,0.3426,0.3427,0.3426,0.3426,0.3377,0.3421,0.342,0.342,0.342,0.342,0.334,0.3351,0.3356,0.3368,0.3373,0.3379,0.339,0.3391,0.3402,0.3413,0.3411,0.3425,0.3432,0.3445,0.345,0.3461,0.3455,0.3461,0.3462,0.3464,0.3465,0.3424,0.3463,0.3463,0.3462,0.3462,0.3462,0,0.3379,0.3382,0.3393,0.3403,0.3412,0.3405,0.3413,0.3421,0.3433,0.344,0.3449,0.3463,0.3475,0.3478,0.3489,0.3497,0.3495,0.35,0.3499,0.35,0.347,0.3465,0.3502,0.3502,0.3502,0.3502,0.3502,0.3502,0.3401,0.3419,0.3418,0.3438,0.3441,0.3455,0.346,0.3466,0.3471,0.3487,0.3496,0.3498,0.3503,0.3514,0.3524,0.3525,0.3529,0.3535,0.3535,0.3506,0.3502,0.3499,0.3494,0.3536,0.3536,0.3564,0.3564,0.3565]},{"header":{"parameterUnit":"m.s-1","parameterCategory":1,"la1":30.2991,"la2":30.254,"lo1":-89.0895,"lo2":-89.0444,"dx":0.0017,"dy":0.0017,"nx":28,"ny":28,"refTime":"2022-11-05T15:00:00:Z","depth":0,"parameterNumber":3,"parameterNumberName":"V-component_of_WINDS"},"data":[0,0,0,0,0,0,0,0,0,0,0,0,0,0,0,0,0,0,0,0,0,0,0,0,0,0,0,0,0,0,0,0,0,0,0,0,0,0,0,0,0,0,0,0,0,0,0,0,0,0,0,0,0,0,0,0,0,0,1.1815,1.1815,0,1.1829,1.1829,1.1829,1.1808,1.1807,1.1806,1.1805,1.1819,1.182,1.1821,0,0,0,0,0,0,0,0,0,0,0,0,0,1.1768,1.1769,1.1815,1.1815,1.1815,1.1829,1.1829,1.1829,1.1808,1.1807,1.1806,1.1805,1.1818,1.182,1.1821,0,0,0,0,0,0,0,0,0,0,0,0,0,1.1786,1.1769,1.1815,1.1806,1.1805,1.1829,1.1829,1.1829,1.1808,1.1807,1.1806,1.1805,1.1818,1.1819,1.1821,1.1853,0,0,1.1826,1.1826,0,0,0,0,0,0,0,0,1.1785,1.1787,1.1807,1.1807,1.1806,1.1815,1.1817,1.1837,1.1808,1.1807,1.1805,1.1804,1.1818,1.182,1.1825,1.1854,1.1854,1.1826,1.1827,1.1828,1.1828,0,0,0,0,0,0,0,1.1784,1.1787,1.182,1.1807,1.1807,1.1801,1.1802,1.1821,1.1819,1.1807,1.1805,1.1807,1.1818,1.1823,1.1825,1.1854,1.1826,1.1827,1.1828,1.1829,1.1911,1.1912,0,0,0,0,0,0,1.1784,1.1786,1.182,1.1821,1.1792,1.1803,1.1804,1.1813,1.1818,1.1818,1.1808,1.1806,1.1821,1.1823,1.1825,1.1864,1.1828,1.1829,1.183,1.1909,1.1911,1.1912,0,0,0,0,0,0,1.1783,1.1787,1.1819,1.1803,1.1807,1.1805,1.1815,1.1814,1.182,1.182,1.1819,1.1815,1.1821,1.1823,1.1847,1.1864,1.183,1.1831,1.1908,1.191,1.1912,1.1941,0,0,0,0,0,0,1.1781,1.1787,1.1799,1.1803,1.1807,1.1841,1.1816,1.1815,1.1823,1.182,1.1825,1.1825,1.182,1.1844,1.1848,1.1866,1.1832,1.1906,1.1909,1.1911,1.1938,1.1944,1.1948,0,0,0,0,0,1.178,1.1806,1.18,1.1804,1.1823,1.1842,1.1844,1.1838,1.1824,1.1837,1.1836,1.1825,1.1861,1.1847,1.1851,1.1869,1.1905,1.1908,1.1911,1.1936,1.1943,1.1948,0,0,0,0,0,0,1.1804,1.1807,1.1799,1.1828,1.1835,1.1838,1.1853,1.1845,1.1855,1.1852,1.1844,1.1845,1.187,1.1872,1.1856,1.1901,1.1881,1.1885,1.1899,1.1905,1.191,1.1909,1.1834,0,0,0,0,0,1.1812,1.1827,1.1829,1.1854,1.1858,1.1855,1.1863,1.1858,1.1864,1.1867,1.1868,1.1874,1.1887,1.1896,1.1908,1.1938,1.1939,1.1953,1.1957,1.1961,1.1965,1.1982,1.1988,1.1921,1.1921,1.1921,0,0,1.183,1.1834,1.1844,1.1859,1.1864,1.1879,1.1858,1.1875,1.1887,1.1869,1.1892,1.1893,1.1899,1.1927,1.1939,1.1929,1.1984,1.1965,1.1968,1.197,1.1985,1.1992,1.1997,1.1923,1.1923,1.1923,0,0,1.1871,1.1875,1.1897,1.1902,1.191,1.1907,1.1913,1.1917,1.1918,1.194,1.1927,1.1941,1.1963,1.1968,1.1974,1.2017,1.2007,1.2021,1.2046,1.2063,1.2068,1.2073,1.2089,1.2095,1.2024,1.2024,1.2024,0,1.1893,1.1916,1.1909,1.1928,1.1935,1.192,1.1943,1.1947,1.1958,1.1963,1.1952,1.198,1.1983,1.2012,1.2023,1.2027,1.2033,1.2021,1.2068,1.2073,1.2077,1.2092,1.2098,1.2026,1.2026,1.2026,1.2026,0,1.1943,1.1959,1.1976,1.1987,1.1996,1.2016,1.2012,1.2022,1.2016,1.2015,1.2038,1.2041,1.2054,1.206,1.2054,1.2088,1.2082,1.2069,1.205,1.2085,1.21,1.2105,1.2029,1.2028,1.2028,1.2027,0,0,1.2,1.2007,1.2014,1.2019,1.2026,1.2038,1.2058,1.207,1.2079,1.2087,1.2103,1.2123,1.2111,1.2118,1.2112,1.2126,1.2161,1.2112,1.2112,1.2122,1.22,1.221,1.2217,1.2154,1.2155,1.2156,1.22,0,1.2041,1.2076,1.207,1.2104,1.2119,1.2105,1.2122,1.2128,1.2127,1.214,1.2139,1.2154,1.2137,1.2141,1.2154,1.2154,1.2177,1.2151,1.217,1.217,1.217,1.2224,1.2235,1.2276,1.2205,1.2206,1.2207,0,1.2095,1.2106,1.2141,1.2146,1.2152,1.2168,1.2179,1.2191,1.2198,1.2196,1.2204,1.2195,1.2214,1.2194,1.222,1.2202,1.2209,1.2211,1.2212,1.2214,1.2192,1.2229,1.2289,1.2296,1.2215,1.2215,1.2214,0,1.2135,1.2157,1.2181,1.2186,1.2192,1.2204,1.2207,1.2212,1.222,1.223,1.2235,1.2247,1.2253,1.2262,1.2257,1.2242,1.2285,1.2263,1.2285,1.2285,1.2295,1.2295,1.2358,1.2298,1.2298,1.2298,1.2298,0,1.2182,1.2205,1.2199,1.2214,1.2239,1.2232,1.2256,1.2257,1.2262,1.2277,1.2265,1.2279,1.2271,1.2284,1.228,1.2303,1.2306,1.2305,1.2304,1.2307,1.2307,1.2312,1.231,1.2299,1.2299,1.2299,1.2298,0,1.2231,1.2228,1.2254,1.2258,1.226,1.2278,1.2281,1.2295,1.2293,1.2312,1.2316,1.2314,1.2329,1.2324,1.234,1.2337,1.2367,1.2361,1.2365,1.2364,1.2386,1.2385,1.2456,1.2465,1.2398,1.2399,1.2399,0,1.2263,1.228,1.2286,1.2295,1.2299,1.2314,1.2323,1.2316,1.2325,1.2334,1.2347,1.2361,1.2372,1.2397,1.2396,1.2409,1.2404,1.2428,1.2406,1.2409,1.2406,1.2405,1.2407,1.2433,1.2434,1.2434,1.2435,0,1.2319,1.2317,1.233,1.2343,1.2354,1.2363,1.2371,1.238,1.2373,1.2384,1.24,1.2409,1.2425,1.244,1.2451,1.2453,1.2444,1.2442,1.2448,1.2451,1.2453,1.2454,1.2379,1.244,1.244,1.2439,1.2439,1.2439,1.2361,1.2376,1.2382,1.2397,1.2403,1.2411,1.2425,1.2425,1.2438,1.2452,1.2447,1.2465,1.2471,1.2485,1.2489,1.2503,1.2494,1.2502,1.2504,1.2506,1.251,1.245,1.2505,1.2505,1.2504,1.2504,1.2504,0,1.2418,1.2421,1.2435,1.2448,1.246,1.2449,1.2458,1.2468,1.2485,1.2491,1.2503,1.2521,1.2535,1.2535,1.2548,1.2559,1.2555,1.2563,1.2563,1.2563,1.2517,1.2511,1.2566,1.2566,1.2566,1.2566,1.2566,1.2566,1.2449,1.2473,1.2472,1.2499,1.2503,1.2521,1.2527,1.2534,1.254,1.2561,1.2573,1.2573,1.2577,1.259,1.2602,1.2602,1.2608,1.2618,1.2616,1.2573,1.2567,1.2561,1.2555,1.2619,1.2619,1.2662,1.2662,1.2663]}]]